[[[{"header":{"parameterUnit":"kt","parameterCategory":2,"dx":1,"dy":1,"la1":30.253999710083008,"la2":30.299108505249023,"lo1":-89.0895004272461,"lo2":-89.04439544677734,"nx":28,"ny":28,"refTime":"2022-10-28T21:00:00:Z","depth":0,"parameterNumber":1,"parameterNumberName":"U-component_of_WINDS"},"data":[-8.4248,-8.4477,-8.4485,-8.4751,-8.4804,-8.4988,-8.5057,-8.5147,-8.5221,-8.5443,-8.5573,-8.5606,-8.5685,-8.5844,-8.5987,-8.5999,-8.606,-8.6136,-8.6137,-8.5787,-8.5739,-8.5694,-8.5639,-8.6148,-8.6149,-8.6499,-8.6502,-8.6504,-8.3994,-8.4048,-8.419,-8.4334,-8.4457,-8.4389,-8.4498,-8.4606,-8.4773,-8.4866,-8.4993,-8.519,-8.5348,-8.5402,-8.5555,-8.5666,-8.5643,-8.5707,-8.57,-8.5714,-8.5339,-8.5281,-8.5723,-8.5723,-8.5723,-8.5722,-8.5722,-8.5722,-8.3535,-8.3672,-8.3762,-8.3917,-8.3991,-8.4087,-8.422,-8.4255,-8.4396,-8.4554,-8.4536,-8.4727,-8.4822,-8.501,-8.5076,-8.5226,-8.5157,-8.523,-8.5249,-8.5267,-8.5288,-8.4786,-8.5252,-8.5251,-8.525,-8.5249,-8.5248,0,-8.3201,-8.3198,-8.3334,-8.3473,-8.3586,-8.3695,-8.3796,-8.3879,-8.3874,-8.3991,-8.4161,-8.426,-8.4458,-8.462,-8.4765,-8.4818,-8.4761,-8.4755,-8.4806,-8.4818,-8.4811,-8.482,-8.4211,-8.4742,-8.4737,-8.4734,-8.4732,-8.473,-8.274,-8.2898,-8.2994,-8.3089,-8.3145,-8.3299,-8.3392,-8.3376,-8.3476,-8.3599,-8.3722,-8.3883,-8.401,-8.4283,-8.4324,-8.4473,-8.4447,-8.4649,-8.4469,-8.4474,-8.4453,-8.4444,-8.4461,-8.4684,-8.469,-8.4695,-8.4699,0,-8.2481,-8.2489,-8.2736,-8.2815,-8.284,-8.3007,-8.3076,-8.3213,-8.3231,-8.3422,-8.3466,-8.3496,-8.3664,-8.3672,-8.3865,-8.3865,-8.4146,-8.4116,-8.4114,-8.4109,-8.4292,-8.4276,-8.4881,-8.496,-8.443,-8.4435,-8.4439,0,-8.2092,-8.2299,-8.23,-8.2443,-8.2673,-8.2649,-8.2879,-8.2917,-8.2995,-8.3146,-8.3079,-8.3222,-8.3208,-8.3353,-8.3353,-8.3583,-8.3619,-8.3633,-8.3631,-8.364,-8.3639,-8.3695,-8.3671,-8.3616,-8.3613,-8.361,-8.3607,0,-8.1685,-8.1927,-8.2158,-8.2215,-8.232,-8.2429,-8.2479,-8.2565,-8.2657,-8.2777,-8.2836,-8.2979,-8.3057,-8.317,-8.3167,-8.3045,-8.3448,-8.328,-8.3463,-8.3464,-8.3553,-8.3548,-8.408,-8.3604,-8.3603,-8.3602,-8.3601,0,-8.1372,-8.149,-8.1822,-8.1908,-8.1972,-8.2125,-8.2261,-8.2392,-8.2489,-8.2497,-8.2591,-8.2547,-8.2746,-8.2579,-8.2855,-8.2697,-8.278,-8.281,-8.2823,-8.2843,-8.2656,-8.2958,-8.3463,-8.3517,-8.2861,-8.2855,-8.2849,0,-8.0906,-8.1242,-8.1221,-8.1538,-8.1694,-8.1606,-8.1776,-8.1861,-8.1886,-8.2023,-8.205,-8.2207,-8.2084,-8.2134,-8.2269,-8.2305,-8.251,-8.2277,-8.2481,-8.2489,-8.246,-8.2924,-8.2997,-8.3351,-8.277,-8.2778,-8.2784,0,-8.0545,-8.0666,-8.0724,-8.0787,-8.0894,-8.1024,-8.1218,-8.1366,-8.1459,-8.1562,-8.1726,-8.1946,-8.1862,-8.1945,-8.1924,-8.2065,-8.237,-8.1956,-8.1959,-8.2033,-8.2729,-8.2799,-8.2859,-8.2326,-8.2335,-8.2343,-8.2722,0,-8.0074,-8.0241,-8.0396,-8.0536,-8.0636,-8.0833,-8.0835,-8.0941,-8.0908,-8.0928,-8.1168,-8.124,-8.1393,-8.146,-8.1431,-8.175,-8.1698,-8.1606,-8.1445,-8.1748,-8.1874,-8.1924,-8.1258,-8.1254,-8.125,-8.1246,0,0,-7.9627,-7.9865,-7.9835,-8.002,-8.0103,-8.0007,-8.0218,-8.0288,-8.0431,-8.0492,-8.0401,-8.0722,-8.0785,-8.1076,-8.1171,-8.1232,-8.1291,-8.1184,-8.1603,-8.1643,-8.168,-8.1814,-8.1866,-8.1239,-8.1238,-8.1236,-8.1235,0,-7.9454,-7.9514,-7.9721,-7.9791,-7.9893,-7.9902,-7.9952,-8.0037,-8.0059,-8.0291,-8.0211,-8.0355,-8.0611,-8.0689,-8.0762,-8.1148,-8.1081,-8.1194,-8.1402,-8.1563,-8.1608,-8.1648,-8.1788,-8.1839,-8.1225,-8.1226,-8.1226,0,-7.9101,-7.9161,-7.926,-7.944,-7.9506,-7.9668,-7.9498,-7.9675,-7.9796,-7.9683,-7.9915,-7.9956,-8.0059,-8.0333,-8.0455,-8.0377,-8.089,-8.0727,-8.0753,-8.0767,-8.0923,-8.0977,-8.1025,-8.0391,-8.0388,-8.0385,0,0,-7.8952,-7.9105,-7.9164,-7.9402,-7.945,-7.9465,-7.9551,-7.9526,-7.9618,-7.9656,-7.9706,-7.98,-7.9948,-8.0047,-8.0187,-8.0486,-8.0507,-8.0624,-8.0664,-8.0696,-8.0728,-8.0892,-8.0946,-8.0374,-8.0374,-8.0373,0,0,-7.8881,-7.8957,-7.8906,-7.9183,-7.9273,-7.9347,-7.9494,-7.9435,-7.956,-7.9537,-7.9507,-7.9531,-7.9786,-7.9829,-7.9681,-8.013,-7.997,-8.0005,-8.0092,-8.0142,-8.0181,-8.0166,-7.9518,0,0,0,0,0,-7.8704,-7.8947,-7.89,-7.8947,-7.9174,-7.9372,-7.9402,-7.938,-7.9267,-7.9385,-7.9417,-7.9337,-7.9743,-7.9611,-7.9659,-7.9825,-8.0231,-8.0257,-8.028,-8.0463,-8.0515,-8.0559,0,0,0,0,0,0,-7.8722,-7.8779,-7.8894,-7.8979,-7.9029,-7.9363,-7.9168,-7.9168,-7.9254,-7.9235,-7.9334,-7.9341,-7.9328,-7.9585,-7.9629,-7.9787,-7.9503,-8.0241,-8.0263,-8.0282,-8.0481,-8.0523,-8.056,0,0,0,0,0,-7.8736,-7.8782,-7.915,-7.8975,-7.9019,-7.9049,-7.9158,-7.9157,-7.9223,-7.9273,-7.9277,-7.9199,-7.9333,-7.9368,-7.9611,-7.9768,-7.9473,-7.9489,-8.0255,-8.0272,-8.0287,-8.0502,0,0,0,0,0,0,-7.8747,-7.8783,-7.9159,-7.9172,-7.888,-7.903,-7.9052,-7.9148,-7.9255,-7.9262,-7.9136,-7.912,-7.9339,-7.9365,-7.9393,-7.9762,-7.9448,-7.9465,-7.9475,-8.0268,-8.0281,-8.0293,0,0,0,0,0,0,-7.8759,-7.8795,-7.9165,-7.9047,-7.9046,-7.9012,-7.9032,-7.9235,-7.9258,-7.9112,-7.9102,-7.9128,-7.9299,-7.9365,-7.9386,-7.9704,-7.9429,-7.9445,-7.9456,-7.9463,-8.0279,-8.0289,0,0,0,0,0,0,-7.8774,-7.8805,-7.9044,-7.9043,-7.9042,-7.9183,-7.9191,-7.9426,-7.9154,-7.9109,-7.9129,-7.9118,-7.9301,-7.9321,-7.9382,-7.9691,-7.97,-7.943,-7.9441,-7.9448,-7.9453,0,0,0,0,0,0,0,-7.8786,-7.8582,-7.9083,-7.904,-7.9038,-7.929,-7.9293,-7.9297,-7.9151,-7.9141,-7.9132,-7.9122,-7.9339,-7.9356,-7.9374,-7.9681,0,0,-7.9428,-7.9436,0,0,0,0,0,0,0,0,-7.8568,-7.8579,-7.9083,-7.9086,-7.9089,-7.929,-7.9293,-7.9296,-7.915,-7.9142,-7.9134,-7.9126,-7.9343,-7.9357,-7.9372,0,0,0,0,0,0,0,0,0,0,0,0,0,0,0,-7.9084,-7.9086,0,-7.9291,-7.9293,-7.9295,-7.9149,-7.9142,-7.9135,-7.9129,-7.9347,-7.9359,-7.9371,0,0,0,0,0,0,0,0,0,0,0,0,0,0,0,0,0,0,0,0,0,0,0,0,0,0,0,0,0,0,0,0,0,0,0,0,0,0,0,0,0,0,0,0,0,0,0,0,0,0,0,0,0,0,0,0,0,0,0,0,0,0,0,0,0,0,0,0,0]}],[{"header":{"parameterUnit":"kt","parameterCategory":2,"dx":1,"dy":1,"la1":30.253999710083008,"la2":30.299108505249023,"lo1":-89.0895004272461,"lo2":-89.04439544677734,"nx":28,"ny":28,"refTime":"2022-10-28T21:00:00:Z","depth":0,"parameterNumber":2,"parameterNumberName":"V-component_of_WINDS"},"data":[-1.4032,-1.4001,-1.3968,-1.3916,-1.3877,-1.3836,-1.381,-1.3773,-1.3735,-1.368,-1.3643,-1.3605,-1.3553,-1.35,-1.3456,-1.3441,-1.3424,-1.3437,-1.3416,-1.3392,-1.3387,-1.3381,-1.3387,-1.3434,-1.3434,-1.3445,-1.3445,-1.3445,-1.4014,-1.3976,-1.3939,-1.3881,-1.3849,-1.3817,-1.3768,-1.3743,-1.3706,-1.3659,-1.3621,-1.357,-1.3526,-1.3469,-1.342,-1.3402,-1.3384,-1.3391,-1.3392,-1.3384,-1.3358,-1.3364,-1.3407,-1.3407,-1.3407,-1.3407,-1.3407,-1.3407,-1.3972,-1.3955,-1.3901,-1.3861,-1.3822,-1.3784,-1.3761,-1.3716,-1.3679,-1.3626,-1.3593,-1.3551,-1.3497,-1.3423,-1.3389,-1.3355,-1.3341,-1.3338,-1.3337,-1.3337,-1.3342,-1.3328,-1.3345,-1.3345,-1.3344,-1.3344,-1.3344,0,-1.393,-1.3904,-1.3867,-1.3821,-1.379,-1.375,-1.3708,-1.3693,-1.3626,-1.3599,-1.3556,-1.3525,-1.3465,-1.342,-1.3368,-1.3333,-1.3297,-1.329,-1.3288,-1.3303,-1.3322,-1.331,-1.3268,-1.329,-1.3289,-1.3289,-1.3289,-1.3288,-1.3885,-1.3869,-1.3798,-1.3776,-1.3745,-1.3712,-1.3685,-1.3627,-1.3601,-1.354,-1.3528,-1.3482,-1.3444,-1.338,-1.3328,-1.3283,-1.3265,-1.3277,-1.3258,-1.3272,-1.3264,-1.3265,-1.3262,-1.3282,-1.3283,-1.3284,-1.3284,0,-1.3861,-1.3808,-1.3774,-1.3705,-1.3687,-1.3673,-1.3613,-1.3594,-1.3553,-1.352,-1.3509,-1.3445,-1.3404,-1.3349,-1.3292,-1.3264,-1.3238,-1.3222,-1.3255,-1.3249,-1.3254,-1.3254,-1.3279,-1.3279,-1.323,-1.3231,-1.3231,0,-1.3801,-1.3784,-1.3705,-1.3689,-1.3666,-1.3609,-1.3588,-1.3551,-1.3506,-1.3479,-1.343,-1.3406,-1.3341,-1.3308,-1.3268,-1.3238,-1.3227,-1.3204,-1.3194,-1.3208,-1.3211,-1.3194,-1.3192,-1.3172,-1.3172,-1.3172,-1.3172,0,-1.3771,-1.3709,-1.3682,-1.3659,-1.3584,-1.3572,-1.354,-1.3489,-1.3464,-1.3422,-1.3404,-1.3359,-1.3335,-1.3301,-1.325,-1.3239,-1.3211,-1.3186,-1.3188,-1.3189,-1.3185,-1.3186,-1.3222,-1.3172,-1.3172,-1.3172,-1.3172,0,-1.3714,-1.3675,-1.3643,-1.3579,-1.3565,-1.3547,-1.35,-1.3472,-1.3422,-1.3395,-1.3362,-1.3323,-1.3293,-1.3271,-1.3228,-1.3228,-1.3206,-1.3182,-1.3181,-1.3175,-1.3153,-1.318,-1.322,-1.3222,-1.3169,-1.3169,-1.3169,0,-1.3693,-1.3648,-1.3599,-1.3571,-1.3542,-1.3489,-1.3467,-1.3425,-1.3389,-1.3358,-1.3317,-1.3284,-1.3256,-1.3238,-1.3224,-1.3181,-1.3181,-1.3179,-1.3135,-1.3134,-1.3149,-1.3185,-1.3205,-1.3217,-1.3168,-1.3168,-1.3168,0,-1.367,-1.3581,-1.358,-1.3551,-1.3488,-1.3464,-1.344,-1.3395,-1.3377,-1.3336,-1.3314,-1.3266,-1.3242,-1.3214,-1.3178,-1.3167,-1.3179,-1.3144,-1.3142,-1.3151,-1.3164,-1.3182,-1.3184,-1.3157,-1.3157,-1.3157,-1.3167,0,-1.3595,-1.3567,-1.3561,-1.3503,-1.3476,-1.3457,-1.3401,-1.338,-1.3348,-1.331,-1.3277,-1.323,-1.3184,-1.3173,-1.3143,-1.3134,-1.3127,-1.3103,-1.3079,-1.3103,-1.3105,-1.3106,-1.308,-1.3079,-1.3078,-1.3077,0,0,-1.3587,-1.3546,-1.3495,-1.3471,-1.3445,-1.3391,-1.3375,-1.3344,-1.3283,-1.3266,-1.3252,-1.3179,-1.3142,-1.3107,-1.311,-1.3093,-1.3085,-1.308,-1.3092,-1.3094,-1.3096,-1.3099,-1.31,-1.3076,-1.3076,-1.3075,-1.3075,0,-1.3549,-1.3513,-1.3499,-1.3464,-1.3412,-1.3373,-1.3369,-1.3308,-1.3284,-1.3252,-1.3208,-1.3182,-1.3127,-1.3092,-1.3067,-1.3082,-1.3051,-1.3073,-1.3099,-1.3085,-1.3088,-1.3091,-1.3095,-1.3097,-1.3073,-1.3073,-1.3073,0,-1.3516,-1.3471,-1.3459,-1.34,-1.3366,-1.3339,-1.3299,-1.3273,-1.3252,-1.3196,-1.3166,-1.3132,-1.3082,-1.3058,-1.3045,-1.3032,-1.3022,-1.3017,-1.3021,-1.3018,-1.3002,-1.3006,-1.3009,-1.2965,-1.2965,-1.2965,0,0,-1.349,-1.3464,-1.3399,-1.3388,-1.3369,-1.3312,-1.3293,-1.326,-1.3217,-1.32,-1.3157,-1.3116,-1.3082,-1.3062,-1.3028,-1.301,-1.2994,-1.3006,-1.3011,-1.3015,-1.3015,-1.3,-1.3004,-1.2964,-1.2964,-1.2964,0,0,-1.3478,-1.3402,-1.3378,-1.3358,-1.3319,-1.3254,-1.3249,-1.3218,-1.3182,-1.3178,-1.3121,-1.3108,-1.3084,-1.3054,-1.3053,-1.3018,-1.2995,-1.2994,-1.3039,-1.3045,-1.305,-1.3057,-1.3006,0,0,0,0,0,-1.3411,-1.3411,-1.339,-1.3379,-1.3306,-1.3266,-1.3256,-1.3209,-1.3193,-1.3189,-1.3148,-1.3116,-1.3041,-1.3038,-1.3028,-1.303,-1.2957,-1.2958,-1.2959,-1.3013,-1.3019,-1.3025,0,0,0,0,0,0,-1.3406,-1.3392,-1.339,-1.3327,-1.3309,-1.3265,-1.3227,-1.3214,-1.3192,-1.3186,-1.3125,-1.3114,-1.3073,-1.3041,-1.3032,-1.3035,-1.3009,-1.2957,-1.2958,-1.2959,-1.3015,-1.302,-1.3025,0,0,0,0,0,-1.3402,-1.339,-1.3286,-1.3326,-1.3311,-1.3249,-1.3227,-1.3216,-1.3197,-1.3134,-1.3123,-1.3164,-1.3075,-1.3064,-1.3035,-1.304,-1.3015,-1.3012,-1.2958,-1.2959,-1.296,-1.3018,0,0,0,0,0,0,-1.3398,-1.338,-1.3282,-1.3276,-1.3323,-1.325,-1.3237,-1.3218,-1.3146,-1.3135,-1.3171,-1.3167,-1.3076,-1.3067,-1.3059,-1.3045,-1.3019,-1.3016,-1.3014,-1.2959,-1.2959,-1.296,0,0,0,0,0,0,-1.3385,-1.3375,-1.3279,-1.3277,-1.327,-1.3252,-1.324,-1.321,-1.3146,-1.3187,-1.3181,-1.317,-1.3088,-1.3069,-1.3063,-1.3017,-1.3023,-1.302,-1.3018,-1.3017,-1.2959,-1.296,0,0,0,0,0,0,-1.338,-1.3371,-1.3278,-1.3273,-1.3267,-1.3193,-1.3224,-1.3151,-1.3145,-1.3191,-1.3144,-1.3143,-1.3091,-1.3083,-1.3066,-1.3023,-1.3018,-1.3023,-1.3021,-1.3019,-1.3018,0,0,0,0,0,0,0,-1.3376,-1.3448,-1.3319,-1.327,-1.3265,-1.3217,-1.3216,-1.3214,-1.3145,-1.3145,-1.3144,-1.3143,-1.3041,-1.3037,-1.3034,-1.3028,0,0,-1.3023,-1.3022,0,0,0,0,0,0,0,0,-1.3451,-1.3449,-1.3319,-1.3318,-1.3316,-1.3217,-1.3216,-1.3214,-1.3145,-1.3145,-1.3144,-1.3143,-1.304,-1.3037,-1.3034,0,0,0,0,0,0,0,0,0,0,0,0,0,0,0,-1.3319,-1.3318,0,-1.3217,-1.3216,-1.3215,-1.3145,-1.3145,-1.3144,-1.3144,-1.3039,-1.3037,-1.3035,0,0,0,0,0,0,0,0,0,0,0,0,0,0,0,0,0,0,0,0,0,0,0,0,0,0,0,0,0,0,0,0,0,0,0,0,0,0,0,0,0,0,0,0,0,0,0,0,0,0,0,0,0,0,0,0,0,0,0,0,0,0,0,0,0,0,0,0,0]}]]]